Погода в Гиганте

Россия / Ростовская область     46°30′22″N   41°20′18″E
темп.,
°C
ветер,
м/с
пор.,
м/с
влажн.,
%
обл.,
%
осадки,
мм/ч
давл.,
гПа
погр.,
м
17 мая, пн
пн1700:00+19вюв71746100 0.0 1004509
03:00+16в6154984 0.0 1004340
06:00+15вюв3117212 0.0 1005238
09:00+20ююв23585 0.0 1007484
12:00+24ссв12515 0.0 1006832
15:00+26ссз235387 0.0 10061077
18:00+24з5772100 0.0 1005351
21:00+18зюз51087100 0.1 1008264
18 мая, вт
вт1800:00+17зюз51295100 2.1 1008470
03:00+16зюз5997100 5.6 1009472
06:00+15з499397 3.3 1010519
09:00+16з5783100 3.3 1011741
12:00+19з577191 0.0 10111056
15:00+21з466192 0.1 10111664
18:00+21зюз356820 0.1 1010156
21:00+16юз11800 0.1 101111
19 мая, ср
ср1900:00+14юв2283100 0.0 101012
03:00+14ююв118874 0.0 100910
06:00+15вюв2487100 0.0 100990
09:00+14з41097100 4.1 1010633
12:00+15юз4890100 11.1 1012686
15:00+18зюз81179100 12.5 10121189
18:00+17юз711795 0.5 1013931
21:00+13юз614895 0.7 1014606
20 мая, чт
чт2000:00+12юз715885 0.0 1014657
03:00+11юз715915 0.0 1014558
06:00+12юз613915 0.0 1015529
09:00+17зюз697313 0.0 1015790
12:00+20юз57610 0.0 10151433
15:00+21юз45565 0.0 10141699
18:00+20ю23685 0.0 1014235
21:00+16в227528 0.0 101415
21 мая, пт
пт2100:00+14в47780 0.0 101390
03:00+13в5128134 0.0 1013205
06:00+14вюв6157637 0.0 1012333
09:00+19юв610683 0.0 1011487
12:00+25вюв686126 0.0 1011762
15:00+27вюв68580 0.0 1010977
18:00+26вюв487183 0.0 1009286
21:00+20вюв45835 0.0 101070